Location: ????????
(55.1591°N, 39.1782°E)
Time: 21:31:23
(UTC+00:00)

ATLAS 3B R/B - Pass Details

Date: 14 April 2024
Orbit: 943 x 1251 km, 63.8° (Epoch: 22 May)

Event Time Altitude Azimuth Distance (km) Brightness Sun altitude
Rises 00:21:03 0° 302° (WNW) 4,105 5.6 -15.5°
Reaches altitude 10° 00:23:50 10° 306° (NW) 3,171 5.1 -15.2°
Maximum altitude 00:31:28 60° 26° (NNE) 1,412 3.6 -14.4°
Drops below altitude 10° 00:39:14 10° 106° (ESE) 3,226 5.7 -13.6°
Sets 00:42:05 0° 110° (ESE) 4,180 6.2 -13.2°
